Вернуться в каталог

STARLINK-31660

АктивенСвязьVLEO
NORAD 59642·PAYLOAD·🇺🇸 United States

Запущен May 3, 2024 с Cape Canaveral Space Force Station

Loading…

Ближайшие Пролёты (ближайшие 24 часа)

TLE

СвежийSource: CelesTrak SupGP

Эпоха: Sep 15, 2026, 02:21 UTC

1 59642C 24082M   26258.09840278  .00049077  00000+0  17773-2 0  2584
2 59642  42.9997 109.7542 0001372 276.2418 231.3419 15.27559492    12

Отслеживайте STARLINK-31660 в реальном времени с AllMySat

Download on the App Store